Flag for Canada Weather past 2 weeks in St. John's, Newfoundland and Labrador, Canada

Now
32 °F

Light freezing rain. Ice fog.


Feels Like: 23 °F
Forecast: 26 / 33 °F
Wind: 12 mph from Northeast

Location: St. John's

Current Time: Apr 2, 2015 at 1:55:37 AM

Latest Report: Apr 2, 2015 at 12:30 AM


Visibility: 1 mi

Pressure: 29.25 "Hg

Humidity: 100%

Dew point: 32 °F

Location of St. John'sLocation

Historic Weather in St. John's — Graph

°F

St. John's temperature yesterday

Maximum temperature yesterday: 39 °F (at 3:30 PM)
Minimum temperature yesterday: 30 °F (at 12:30 AM)
Average temperature yesterday: 34 °F

Past Weeks' High & Low Weather Summary

 TemperatureHumidityPressure
High43 °F (Mar 22, 3:30 PM)100% (Mar 18, 12:30 AM)30.34 "Hg (Mar 18, 12:30 AM)
Low16 °F (Mar 21, 5:30 AM)51% (Mar 26, 1:30 PM)28.71 "Hg (Mar 19, 9:30 AM)
Average29 °F86%29.71 "Hg
* Reported Mar 18 12:30 AM — Apr 2 12:30 AM, St. John's, Weather by CustomWeather, © 2015

Note: Actual official high and low records may vary slightly from our data, if they occured in-between our weather recording intervals... More about our weather records

Advertising

St. John's weather history for previous 24 hours

 ConditionsComfort  
Time TempWeatherWind HumidityBarometerVisibility
12:30 AM
Thu, Apr 2
32 °FLight freezing rain. Ice fog.12 mph100%29.25 "Hg1 mi
11:30 PM
Wed, Apr 1
30 °FSleet. Ice fog.20 mph100%29.38 "Hg1 mi
10:30 PM30 °FSnow. Ice fog.17 mph100%29.50 "Hg1 mi
9:30 PM30 °FLight snow. Ice fog.14 mph100%29.62 "Hg1 mi
8:30 PM34 °FLight snow. Mostly cloudy.10 mph87%29.68 "Hg15 mi
8:16 PM34 °FLight snow. Overcast.10 mph87%29.69 "Hg15 mi
7:30 PM34 °FOvercast.14 mph87%29.72 "Hg15 mi
6:30 PM37 °FOvercast.10 mph70%29.74 "Hg15 mi
5:30 PM37 °FPartly sunny.13 mph70%29.75 "Hg15 mi
4:30 PM39 °FPartly sunny.12 mph61%29.75 "Hg15 mi
3:30 PM39 °FPassing clouds.17 mph61%29.76 "Hg15 mi
2:30 PM37 °FPassing clouds.14 mph70%29.74 "Hg15 mi
1:30 PM36 °FScattered clouds.22 mph70%29.76 "Hg15 mi
12:30 PM36 °FPartly sunny.25 mph70%29.73 "Hg15 mi
11:30 AM34 °FPartly sunny.29 mph75%29.73 "Hg15 mi
10:30 AM34 °FPartly sunny.26 mph75%29.71 "Hg15 mi
9:30 AM32 °FPartly sunny.26 mph80%29.66 "Hg15 mi
8:30 AM30 °FPartly sunny.23 mph86%29.63 "Hg15 mi
7:30 AM30 °FPartly sunny.23 mph86%29.59 "Hg15 mi
6:30 AM30 °FSnow flurries. Passing clouds.30 mph86%29.57 "Hg15 mi
5:30 AM34 °FPassing clouds.26 mph81%29.55 "Hg15 mi
5:21 AM34 °FPassing clouds.31 mph81%29.54 "Hg15 mi
4:30 AM34 °FSnow flurries. Overcast.23 mph87%29.55 "Hg15 mi
4:16 AM34 °FOvercast.22 mph87%29.56 "Hg15 mi
3:30 AM34 °FPassing clouds.13 mph87%29.57 "Hg15 mi
2:30 AM34 °FLight snow. Mostly cloudy.15 mph87%29.58 "Hg15 mi
2:21 AM32 °FLight snow. Low clouds.18 mph100%29.59 "Hg12 mi
1:30 AM32 °FLow clouds.13 mph93%29.59 "Hg15 mi
Weather by CustomWeather, © 2015

See weather overviewHow to use our weather pages